Regional Weather Roundup
Issued by NWS

Home | Current Version | Previous Version | Graphics & Text | Print | Product List | Glossary On
Versions: 1 2 3 4 5 6 7 8 9 10 11 12 13 14 15 16 17 18 19 20 21 22 23 24 25 26 27 28 29 30 31 32 33 34 35 36 37 38 39 40 41 42 43 44 45 46 47 48 49 50
036
ASUS45 KCYS 251310
RWRWY

WYOMING REGIONAL WEATHER ROUNDUP
NATIONAL WEATHER SERVICE CHEYENNE WY
700 AM MDT SUN SEP 25 2016

NOTE:  "FAIR" INDICATES FEW OR NO CLOUDS BELOW 12,000 FEET
WITH NO SIGNIFICANT WEATHER AND/OR OBSTRUCTIONS TO VISIBILITY.

WYZ001-251400-
YELLOWSTONE NATIONAL PARK

CITY           SKY/WX    TMP DP  RH WIND       PRES   REMARKS
LK YELLOWSTONE   N/A     25  24  96 CALM      30.53R
W YELLOWSTONE  NOT AVBL

$$
WYZ002>013-054>058-071-098>099-251400-
NORTHERN WYOMING

CITY           SKY/WX    TMP DP  RH WIND       PRES   REMARKS
JACKSON        CLEAR     30  30 100 CALM      30.50R
CODY           FAIR      37  34  87 CALM      30.44S
GREYBULL       FOG       40  39  97 SE3       30.40R VSB 1/4
WORLAND        FAIR      40  38  93 CALM      30.41R
SHERIDAN       CLOUDY    47  41  80 NW5       30.39R
BUFFALO        CLOUDY    47  36  65 N9        30.41R
GILLETTE       FAIR      44  42  93 W12       30.38R
HULETT         FAIR      43  37  81 W7        30.36R
NEWCASTLE      FAIR      41  39  93 NW9       30.35R

$$
WYZ014>020-022>026-101>103-251400-
CENTRAL WYOMING

CITY           SKY/WX    TMP DP  RH WIND       PRES   REMARKS
BIG PINEY      FAIR      30  28  92 N9        30.49R WCI  22
PINEDALE       FAIR      28  28 100 NW3       30.51R
DUBOIS         FAIR      34  28  80 W6        30.46R WCI  29
LANDER         FAIR      38  33  82 CALM      30.42R
RIVERTON       FAIR      36  36 100 CALM      30.43R
CASPER         FAIR      37  34  89 W8        30.42R WCI  31
DOUGLAS        CLOUDY    44  38  79 NW8       30.41R

$$
WYZ021-027>030-104>119-251400-
SOUTHERN WYOMING

CITY           SKY/WX    TMP DP  RH WIND       PRES   REMARKS
EVANSTON       FAIR      35  27  72 S7        30.49S WCI  29
FORT BRIDGER   FAIR      38  32  80 W6        30.52S WCI  33
ROCK SPRINGS   FAIR      35  33  92 S5        30.48R WCI  31
DIXON          FAIR      35  34  95 CALM      30.50S
RAWLINS        FAIR      29  26  89 CALM      30.47R
SARATOGA       FAIR      32  32 100 S10       30.48R WCI  24
LARAMIE        FAIR      31  26  82 SW6       30.46R WCI  25
CHEYENNE       FAIR      38  31  76 W9        30.44R WCI  31
TORRINGTON     FAIR      44  38  79 NW7       30.38R
PINE BLUFFS    FAIR      41  34  75 NW13      30.41R

$$




USA.gov is the U.S. government's official web portal to all federal, state and local government web resources and services.